Regional Weather Roundup
Issued by NWS

Home | Current Version | Previous Version | Graphics & Text | Print | Product List | Glossary On
Versions: 1 2 3 4 5 6 7 8 9 10 11 12 13 14 15 16 17 18 19 20 21 22 23 24 25 26 27
000
ASUS43 KDMX 220507
RWRIA

WEATHER ROUNDUP FOR IOWA
NATIONAL WEATHER SERVICE DES MOINES IA
1200 AM CDT TUE APR 22 2014

NOTE: "FAIR" INDICATES FEW OR NO CLOUDS BELOW 12,000 FEET WITH NO
SIGNIFICANT WEATHER AND/OR OBSTRUCTIONS TO VISIBILITY.

* - THESE STATIONS ARE NOT NWS STATIONS...THUS NOT UNDER NWS
QUALITY CONTROL.  THEY ALSO DO NOT REPORT WEATHER SUCH
AS PRECIPITATION OR FOG.

IAZ001>003-012>014-020>022-031>034-043>046-220600-
   NORTHWEST IOWA

CITY           SKY/WX    TMP DP  RH WIND       PRES   REMARKS
CARROLL *      CLEAR     46  34  61 N12       30.12R
CHEROKEE *     CLEAR     48  32  53 N6        30.15R
DENISON *      CLEAR     48  34  57 VRB6      30.13R
LE MARS *      CLEAR     43  32  65 N5        30.16S
ORANGE CITY *  CLEAR     48  28  46 N6        30.15S
SHELDON *      CLEAR     39  28  65 N5        30.14S
SIOUX CITY     CLEAR     51  32  48 N7        30.16R
SPENCER        CLEAR     39  30  70 NW8       30.14R WCI  33
STORM LAKE *   CLEAR     45  32  61 N9        30.14S
$$

IAZ055>058-069>071-079>083-090>094-220600-
   SOUTHWEST IOWA

CITY           SKY/WX    TMP DP  RH WIND       PRES   REMARKS
ATLANTIC *     MOCLDY    48  37  66 N9        30.12R
AUDUBON *      CLEAR     48  34  57 N9        30.13R
CLARINDA *     CLEAR     52  37  58 N10       30.12R
COUNCIL BLFS * CLEAR     52  36  54 N8        30.13R
CRESTON *      CLEAR     52  36  54 N16       30.09R
HARLAN  *      CLEAR     48  37  66 N7        30.17R
LAMONI         CLEAR     56  37  49 N13       30.06R
RED OAK *      CLEAR     46  39  76 N7        30.12R
SHENANDOAH *   CLEAR     52  37  58 NE8       30.13R
$$

IAZ047>049-059>061-072>074-084-220600-
   CENTRAL IOWA

CITY           SKY/WX    TMP DP  RH WIND       PRES   REMARKS
AMES           CLEAR     50  35  56 NW16      30.07R
ANKENY *       CLEAR     52  34  50 N16G22    30.06S
CHARITON *     CLEAR     54  37  54 N14G22    30.06R
DES MOINES     CLEAR     55  33  43 N15G26    30.07R
GRINNELL*      CLEAR     45  37  76 NW8       30.03S
KNOXVILLE *    CLEAR     54  37  54 NW12G18   30.05R
MARSHALLTOWN   CLEAR     47  38  71 NW14      30.03R
NEWTON *       CLEAR     50  36  57 NW15      30.05R
PELLA *        CLEAR     50  39  66 NW10      30.05R
PERRY *          N/A     50  32  50 N12       30.10R
$$

IAZ004>006-015-016-023>025-035-036-220600-
   NORTH CENTRAL IOWA

CITY           SKY/WX    TMP DP  RH WIND       PRES   REMARKS
ALGONA *       CLEAR     45  32  61 N12       30.11R
CLARION *      CLEAR     45  36  70 N14       30.08R
ESTHERVILLE    CLEAR     43  31  62 NW12      30.12R
FORT DODGE *   CLEAR     48  34  57 N9G18     30.11R
MASON CITY     CLEAR     46  34  62 NW20      30.07R
FOREST CITY *  CLEAR     45  32  61 NW12G20   30.07R
IOWA FALLS *     N/A     46  36  66 NW16G22   30.06R
$$

IAZ007>011-017>019-026>030-037>042-050>054-066-220600-
   NORTHEAST IOWA

CITY           SKY/WX    TMP DP  RH WIND       PRES   REMARKS
CEDAR RAPIDS   CLEAR     51  40  65 NW15      29.96R
CHARLES CITY * CLEAR     48  36  61 NW21G28   30.02S
CLINTON *      CLEAR     52  43  71 NW12      29.93R
DECORAH *      PTCLDY    48  34  57 N10       29.98R
DUBUQUE        CLEAR     53  35  50 N21G26    29.92R
MONTICELLO *   CLEAR     54  39  58 NW15      29.94R
OELWEIN *      CLEAR    N/A N/A N/A NW14G20   29.99S
WATERLOO       CLEAR     48  37  65 NW20      30.00R
$$

IAZ064-065-067-068-078-220600-
   EAST CENTRAL IOWA

CITY           SKY/WX    TMP DP  RH WIND       PRES   REMARKS
DAVENPORT      CLEAR     52  43  71 NW12      29.93R
IOWA CITY      CLEAR     54  42  64 NW15      29.98R
MT. PLEASANT * CLEAR     55  41  58 NW9       29.97R
MUSCATINE *    CLEAR     54  45  71 NW10      29.95R
QUAD CITIES    CLEAR     55  42  61 NW10      29.92R
$$

IAZ062-063-075>077-085>089-095>099-220600-
   SOUTHEAST IOWA

CITY           SKY/WX    TMP DP  RH WIND       PRES   REMARKS
BURLINGTON     CLEAR     56  43  61 NW13      29.94R
FAIRFIELD *    CLEAR     52  41  66 NW13      30.00R
FORT MADISON * CLEAR     55  45  67 NW12      29.96S
KEOKUK *       CLEAR     55  46  71 NW10      29.95S
OSKALOOSA *      N/A     52  39  62 N14       30.02R
CENTERVILLE *  CLEAR     54  41  62 NW12      30.04R
OTTUMWA        CLEAR     51  39  63 NW17      30.01R
WASHINGTON *   CLEAR     52  43  71 NW16G24   29.98R
$$

ABBREVIATIONS USED IN REMARKS
   TC - TEMPERATURES IN CELSIUS
  WCI - WIND CHILL INDEX
   HX - HEAT INDEX
  VSB - VISIBILITY
$$




USA.gov is the U.S. government's official web portal to all federal, state and local government web resources and services.